This is the latest recevied weather packets stored in our database for station/object KF0JHJ. If no packets are shown the sender has not sent any weather packets the latest 10 day(s).
| Time | Temp. | Humidity | Pressure | Rain* | Wind** | Luminosity | Snow |
|---|---|---|---|---|---|---|---|
| 1777485392 | 12.22° C | 46% | 1016.1 hPa | - | - | 565 W/m² | - |
| 1777485088 | 11.67° C | 46% | 1016.1 hPa | - | - | 697 W/m² | - |
| 1777484786 | 12.22° C | 50% | 1016.5 hPa | - | - | 679 W/m² | - |
| 1777484481 | 11.67° C | 50% | 1016.5 hPa | - | - | 654 W/m² | - |
| 1777484179 | 11.11° C | 53% | 1016.7 hPa | - | - | 680 W/m² | - |
| 1777483874 | 11.67° C | 51% | 1016.7 hPa | - | - | 147 W/m² | - |
| 1777483571 | 10.56° C | 49% | 1016.7 hPa | - | - | 591 W/m² | - |
| 1777483271 | 11.67° C | 50% | 1017 hPa | - | - | 661 W/m² | - |
| 1777482968 | 12.22° C | 55% | 1016.8 hPa | - | - | 624 W/m² | - |
| 1777482664 | 11.67° C | 52% | 1016.7 hPa | - | - | 265 W/m² | - |
| 1777482361 | 11.67° C | 51% | 1016.6 hPa | - | - | 526 W/m² | - |
| 1777482059 | 11.11° C | 53% | 1016.9 hPa | - | - | 670 W/m² | - |
| 1777481756 | 11.11° C | 51% | 1017 hPa | - | - | 223 W/m² | - |
| 1777481454 | 10.56° C | 53% | 1017 hPa | - | - | 724 W/m² | - |
| 1777481149 | 11.11° C | 49% | 1017 hPa | - | - | 688 W/m² | - |
| 1777480846 | 10.56° C | 51% | 1017 hPa | - | - | 664 W/m² | - |
| 1777480543 | 10.56° C | 53% | 1016.8 hPa | - | - | 691 W/m² | - |
| 1777480239 | 10.56° C | 49% | 1016.9 hPa | - | - | 695 W/m² | - |
| 1777479936 | 10.56° C | 51% | 1017.1 hPa | - | - | 493 W/m² | - |
| 1777479633 | 10.56° C | 49% | 1017 hPa | - | - | 424 W/m² | - |
| 1777479331 | 10.56° C | 51% | 1016.8 hPa | - | - | 590 W/m² | - |
| 1777479027 | 10° C | 50% | 1016.9 hPa | - | - | 415 W/m² | - |
| 1777478724 | 10.56° C | 50% | 1017 hPa | - | - | 483 W/m² | - |
| 1777478420 | 10° C | 53% | 1017 hPa | - | - | 336 W/m² | - |
| 1777478117 | 10° C | 51% | 1017.3 hPa | - | - | 323 W/m² | - |
* Rain since midnight (hover to see other rain measurements)
** Current wind speed in m/s (hover to see current wind gust speed)